Weather History for KATY - March, 2012

Change the Weather History Date:

Saturday, March 17, 2012

  Actual Average Record
Temperature  
Mean Temperature 63 °F 30 °F  
Max Temperature 74 °F 39 °F 74 °F (2012)
Min Temperature 52 °F 20 °F -10 °F (1993)
Degree Days  
Heating Degree Days 2 35  
Month to date heating degree days 486 658  
Since 1 July heating degree days 5995 7069  
Cooling Degree Days 0 0  
Month to date cooling degree days 0 0  
Year to date cooling degree days 0 0  
Growing Degree Days 12 (Base 50)    
Moisture  
Dew Point 53 °F    
Average Humidity 75    
Maximum Humidity 100    
Minimum Humidity 49    
Precipitation  
Precipitation 0.00 in 0.04 in 0.87 in (1965)
Month to date precipitation 0.09 0.54  
Year to date precipitation 1.26 1.62  
Snow  
Snow 0.00 in - - ()
Month to date snowfall 1.4  
Since 1 July snowfall 19.6  
Snow Depth 0.00 in    
Sea Level Pressure  
Sea Level Pressure 29.65 in    
Wind  
Wind Speed 13 mph (South)    
Max Wind Speed 24 mph    
Max Gust Speed 30 mph    
Visibility 6 miles    
Events Fog    
T = Trace of Precipitation, MM = Missing Value Source: NWS Daily Summary

Daily Weather History Graph

Daily Weather History Graph

Search for Another Location

Airport or City:

Trip Planner

Search our weather history database for the weather conditions in past years. The results will help you decide how hot, cold, wet, or windy it might be!

Date:

Astronomy

Mar. 17, 2012 Rise Set
Actual Time 7:36 AM CDT 7:37 PM CDT
Civil Twilight 7:07 AM CDT 8:07 PM CDT
Nautical Twilight 6:33 AM CDT 8:41 PM CDT
Astronomical Twilight 5:58 AM CDT 9:16 PM CDT
Moon 4:50 AM CDT (3/17) 2:52 PM CDT (3/17)
Length of Visible Light 12h 59m
Length of Day
12h 01m
Waning Crescent, 23% of the Moon is Illuminated
Mar 17
Waning Crescent
Mar 22
New
Mar 30
First Quarter
Apr 6
Full
Apr 13
Last Quarter

Hourly Weather History & Observations

Time (CDT) Temp. Dew Point Humidity Pressure Visibility Wind Dir Wind Speed Gust Speed Precip Events Conditions
12:53 AM 55.9 °F 48.0 °F 75% 29.68 in 10.0 mi South 12.7 mph - N/A   Clear
1:53 AM 53.1 °F 46.9 °F 80% 29.67 in 10.0 mi South 10.4 mph - N/A   Clear
2:53 AM 53.1 °F 48.0 °F 83% 29.66 in 9.0 mi SSE 12.7 mph - N/A   Clear
3:53 AM 52.0 °F 48.9 °F 89% 29.65 in 8.0 mi South 10.4 mph - N/A   Clear
4:53 AM 53.1 °F 50.0 °F 89% 29.64 in 7.0 mi SSE 9.2 mph - N/A   Clear
5:53 AM 53.1 °F 51.1 °F 93% 29.65 in 6.0 mi SSE 11.5 mph - N/A   Clear
6:53 AM 52.0 °F 51.1 °F 97% 29.66 in 4.0 mi South 10.4 mph - N/A   Clear
7:04 AM 51.8 °F 51.8 °F 100% 29.67 in 3.0 mi South 9.2 mph - N/A   Scattered Clouds
7:11 AM 51.8 °F 51.8 °F 100% 29.67 in 3.0 mi South 8.1 mph - N/A   Mostly Cloudy
7:20 AM 51.8 °F 51.8 °F 100% 29.67 in 2.5 mi South 8.1 mph - N/A   Mostly Cloudy
7:32 AM 53.6 °F 51.8 °F 94% 29.67 in 1.2 mi South 11.5 mph - N/A   Overcast
7:42 AM 53.6 °F 51.8 °F 94% 29.67 in 0.5 mi South 11.5 mph - N/A Fog Fog
7:50 AM 53.6 °F 51.8 °F 94% 29.67 in 0.2 mi South 10.4 mph - N/A Fog Fog
7:53 AM 53.1 °F 52.0 °F 96% 29.66 in 0.2 mi South 11.5 mph - N/A Fog Fog
8:14 AM 53.6 °F 53.6 °F 100% 29.67 in 0.2 mi South 10.4 mph - N/A Fog Fog
8:53 AM 55.0 °F 54.0 °F 96% 29.67 in 0.2 mi South 15.0 mph - N/A Fog Fog
9:37 AM 57.2 °F 55.4 °F 94% 29.68 in 0.5 mi South 9.2 mph - N/A Fog Fog
9:49 AM 57.2 °F 57.2 °F 100% 29.67 in 1.5 mi South 11.5 mph - N/A   Overcast
9:53 AM 57.9 °F 57.0 °F 97% 29.68 in 1.8 mi South 11.5 mph - N/A   Overcast
10:01 AM 57.2 °F 57.2 °F 100% 29.67 in 2.5 mi South 10.4 mph - N/A   Overcast
10:10 AM 57.2 °F 57.2 °F 100% 29.67 in 3.0 mi South 12.7 mph - N/A   Overcast
10:53 AM 63.0 °F 57.9 °F 84% 29.66 in 9.0 mi South 19.6 mph 27.6 mph N/A   Overcast
11:10 AM 64.4 °F 57.2 °F 77% 29.67 in 10.0 mi South 19.6 mph 27.6 mph N/A   Mostly Cloudy
11:53 AM 66.9 °F 57.0 °F 70% 29.65 in 10.0 mi South 17.3 mph 26.5 mph N/A   Scattered Clouds
12:53 PM 69.1 °F 55.9 °F 63% 29.64 in 10.0 mi South 17.3 mph 24.2 mph N/A   Partly Cloudy
1:53 PM 69.1 °F 55.0 °F 61% 29.63 in 10.0 mi South 18.4 mph 28.8 mph N/A   Scattered Clouds
2:07 PM 69.8 °F 55.4 °F 60% 29.64 in 10.0 mi South 18.4 mph 26.5 mph N/A   Mostly Cloudy
2:35 PM 71.6 °F 55.4 °F 57% 29.64 in 10.0 mi South 16.1 mph 27.6 mph N/A   Scattered Clouds
2:53 PM 70.0 °F 54.0 °F 57% 29.62 in 10.0 mi South 18.4 mph 24.2 mph N/A   Scattered Clouds
3:53 PM 72.0 °F 54.0 °F 53% 29.61 in 10.0 mi South 21.9 mph 29.9 mph N/A   Clear
4:53 PM 73.9 °F 55.0 °F 52% 29.59 in 10.0 mi South 17.3 mph 25.3 mph N/A   Clear
5:53 PM 73.0 °F 54.0 °F 51% 29.60 in 10.0 mi South 13.8 mph - N/A   Clear
6:53 PM 71.1 °F 55.0 °F 57% 29.61 in 10.0 mi SSE 11.5 mph - N/A   Clear
7:53 PM 64.9 °F 54.0 °F 68% 29.61 in 10.0 mi SSE 8.1 mph - N/A   Clear
8:53 PM 64.0 °F 54.0 °F 70% 29.61 in 10.0 mi SE 5.8 mph - N/A   Clear
9:53 PM 62.1 °F 53.1 °F 72% 29.61 in 10.0 mi SE 4.6 mph - N/A   Clear
10:53 PM 64.0 °F 53.1 °F 67% 29.59 in 10.0 mi SSE 13.8 mph - N/A   Clear
11:53 PM 61.0 °F 52.0 °F 72% 29.60 in 10.0 mi SSE 15.0 mph - N/A   Clear